Miscellaneous Local Product
Issued by NWS North Platte, NE

Home | Current Version | Previous Version | Text Only | Print | Product List | Glossary On
Versions: 1 2 3 4 5 6 7 8 9 10 11 12 13 14 15 16 17 18 19 20 21 22 23 24 25 26 27 28 29 30 31 32 33 34 35 36 37 38 39 40 41 42 43 44 45 46 47 48 49 50
000
AXUS43 KLBF 050110
MISLBF


WESTERN AND NORTH CENTRAL NEBRASKA HOURLY WEATHER ROUNDUP
NATIONAL WEATHER SERVICE NORTH PLATTE NE
800 PM CDT TUE AUG 04 2015

***STATIONS NOT REPORTING VARIABLES SUCH AS SKY/WEATHER OR
PRESSURE ARE PROVIDED BY THE NEBRASKA DEPARTMENT OF
ROADS...RAWS...AND APRS NETWORKS...AND ARE NOT UNDER
NATIONAL WEATHER SERVICE QUALITY CONTROL***

...OBSERVATIONS IN AND NEAR THE EASTERN PANHANDLE OF NEBRASKA...

CITY           SKY/WX    TMP DP  RH WIND       PRES   REMARKS
PINE RIDGE     MOSUNNY   75  61  61 SE7       29.97R
CHADRON        MOSUNNY   75  61  61 SW6       29.97R
ALLIANCE       PTSUNNY   71  61  70 SW7       29.99S
SIDNEY         PTSUNNY   73  60  63 S7        30.03F
BIG SPRINGS      N/A     72  64  74 CALM        N/A
$$

...OBSERVATIONS IN NORTH CENTRAL NEBRASKA...

CITY           SKY/WX    TMP DP  RH WIND       PRES   REMARKS
THEDFORD       CLOUDY    73  64  71 E7        29.98S
AINSWORTH      CLOUDY    73  66  76 E7        29.98S
O`NEILL        CLOUDY    74  65  74 SE9       29.97S
ORD            CLOUDY    67  62  84 S8        29.95R
BROKEN BOW     CLOUDY    68  65  90 SE12      29.95R
SPRINGVIEW       N/A     74  66  76 E3          N/A
CHAMBERS         N/A     72  65  77 E3          N/A
EWING            N/A     72  66  82 E3          N/A
$$

...OBSERVATIONS IN SOUTHWEST NEBRASKA AND FAR NORTHEAST COLORADO...

CITY           SKY/WX    TMP DP  RH WIND       PRES   REMARKS
WRAY           FAIR      75  59  57 CALM      30.00S
HOLYOKE        FAIR      73  64  73 CALM      30.00S
IMPERIAL       MOCLDY    73  61  65 W5        29.97S
OGALLALA       MOCLDY    70  63  78 SE3       29.98S
NORTH PLATTE   CLOUDY    71  63  75 CALM      29.98R
MCCOOK         CLOUDY    65  63  93 CALM      29.95R
LEXINGTON      CLOUDY    66  64  94 NE8       29.96R
PAXTON           N/A     71  64  80 CALM        N/A
BRADY            N/A     67  65  92 CALM        N/A
CALLAWAY         N/A     68  67  98 S3          N/A
$$

...NORTH PLATTE AREA...

CITY           SKY/WX    TMP DP  RH WIND       PRES   REMARKS
AIRPORT        CLOUDY    71  63  75 CALM      29.98R
DOWNTOWN         N/A     70  65  83 CALM        N/A
SANDRIDGE        N/A     71  64  78 CALM        N/A
HILLCREST        N/A     70  65  84 CALM        N/A
$$

...SOME WEATHER OBSERVATIONS FROM AROUND THE REGION...

CITY           SKY/WX    TMP DP  RH WIND       PRES   REMARKS
DENVER         MOSUNNY   86  41  20 VRB7      30.07S
LARAMIE        MOSUNNY   74  42  31 NW15      30.19S
CHEYENNE       MOSUNNY   70  52  52 NE8       30.13R
SCOTTSBLUFF    PTSUNNY   70  67  90 S5        30.00S
RAPID CITY     PTSUNNY   79  61  53 S8        29.95R
PIERRE         MOCLDY    79  60  52 E14       29.91S
WINNER         FAIR      78  64  61 SE12      29.95S
SIOUX FALLS    CLOUDY    74  62  66 E10       29.99S
OMAHA          MOCLDY    75  66  73 E9        29.96S
GRAND ISLAND   CLOUDY    67  64  90 CALM      29.92F
KANSAS CITY    LGT RAIN  71  70  96 S6        29.98F
WICHITA        PTCLDY    79  69  71 SE8       29.92S
HAYS           CLOUDY    82  63  51 E13       29.91R
LIBERAL        CLEAR     88  64  45 S16       29.89F
GOODLAND       PTCLDY    76  64  66 E10       30.00R
$$



USA.gov is the U.S. government's official web portal to all federal, state and local government web resources and services.